Location: Caltech
(34.1382°N, 118.1253°W)
Time: 10:35:15
(UTC-07:00)

Iridium 75 - Visible Passes

Search period start: 31 July 2014 00:00
Search period end: 10 August 2014 00:00
Orbit: 776 x 779 km, 86.4° (Epoch: 31 July)

Date Brightness Start Highest point End Pass type
(mag) Time Alt. Az. Time Alt. Az. Time Alt. Az.
31 Jul 8.0 00:26:03 24° NNE 00:26:03 24° NNE 00:28:09 10° N visible
31 Jul 8.3 23:52:39 17° NE 23:52:39 17° NE 23:54:08 10° NNE visible
01 Aug 8.4 01:33:07 16° NW 01:33:07 16° NW 01:34:34 10° NNW visible
01 Aug 8.6 23:19:13 10° NE 23:19:13 10° NE 23:19:22 10° NE visible
02 Aug 8.1 00:59:42 23° NNW 00:59:42 23° NNW 01:01:41 10° N visible
03 Aug 8.0 00:26:16 25° N 00:26:16 25° N 00:28:20 10° N visible
03 Aug 8.1 23:52:50 21° NNE 23:52:50 21° NNE 23:54:36 10° NNE visible
04 Aug 8.7 01:33:18 12° NW 01:33:18 12° NW 01:33:54 10° NW visible
04 Aug 8.4 23:19:24 14° NE 23:19:24 14° NE 23:20:22 10° NNE visible
05 Aug 8.4 00:59:52 18° NNW 00:59:52 18° NNW 01:01:29 10° NNW visible
06 Aug 8.1 00:26:25 23° NNW 00:26:25 23° NNW 00:28:23 10° N visible
06 Aug 8.1 23:52:58 23° NNE 23:52:58 23° NNE 23:54:52 10° N visible
07 Aug 8.2 23:19:31 18° NNE 23:19:31 18° NNE 23:20:58 10° NNE visible
08 Aug 8.6 00:59:59 14° NW 00:59:59 14° NW 01:01:02 10° NNW visible
08 Aug 8.5 22:46:03 11° NE 22:46:03 11° NE 22:46:25 10° NE visible
09 Aug 8.3 00:26:31 20° NNW 00:26:31 20° NNW 00:28:17 10° NNW visible
09 Aug 8.1 23:53:03 24° N 23:53:03 24° N 23:55:00 10° N visible
